SCP
0 0 0 0 0 0 0 0 0 0 0 0 0 0 0 0 0 0 0 0 0 0 0 0 0 0 0 0 0 0 0 0 0 0 0 0 0 0
0 0 0 0 0 0 0 0 0 0 0 0 0 0 0 0 0 0 0 0 0 0 0 0 0 0 0 0 0 0 0 0 0 0 0 0 0 0
0 0 0 0 0 0 0 0 0 0 0 0 0 0 0 0 0 0 0 0 0 0 0 0 0 0 0 0 0 0 0 0 0 0 0 0 0 0
0 0 0 0 0 0 0 0 0 0 0 0 0 0 0 0 0 0 0 0 0 0 0 0 0 0 0 0 0 0 0 0 0 0 0 0 0 0
0 0 0 0 0 0 0 0 0 0 0 0 0 0 0 0 0 0 0 0 0 0 0 0 0 0 0 0 0 0 0 0 0 0 0 0 0 0
0 0 0 0 0 0 0 0 0 0 0 0 0 0 0 0 0 0 0 0 0 0 0 0 0 0 0 0 0 0 0 0 0 0 0 0 0 0
0 0 0 0 0 0 0 0 0 0 0 0 0 0 0 0 0 0 0 0 0 0 0 0 0 0 0 0 0 0 0 0 0 0 0 0 0 0
0 0 0 0 0 0 0 0 0 0 0 0 0 0 0 0 0 0 0 0 0 0 0 0 0 0 0 0 0 0 0 0 0 0 0 0 0 0
0 0 0 0 0 0 0 0 0 0 0 0 0 0 0 0 0 0 0 0 0 0 0 0 0 0 0 0 0 0 0 0 0 0 0 0 0 0
0 0 0 0 0 0 0 0 0 0 0 0 0 0 0 0 0 0 0 0 0 0 0 0 0 0 0 0 0 0 0 0 0 0 0 0 0 0
0 0 0 0 0 0 0 0 0 0 0 0 0 0 0 0 0 0 0 0 0 0 0 0 0 0 0 0 0 0 0 0 0 0 0 0 0 0
0 0 0 0 0 0 0 0 0 0 0 0 0 0 0 0 0 0 0 0 0 0 0 0 0 0 0 0 0 0 0 0 0 0 0 -0 -0 0
0 0 0 0 0 0 0 0 0 0 0 0 0 0 0 0 0 0 0 0 0 0 0 0 0 0 0 0 0 0 0 0 0 0 0 0 0 0
0 0 0 0 0 0 0 0 0 0 0 0 0 0 0 0 0 0 0 0 0 0 0 0 0 0 0 0 0 0 0 0 0 0 0 0 0 0
0 0 0 0 0 0 0 0 0 0 0 0 0 0 0 0 0 0 0 0 0 0 0 0 0 0 0 0 0 0 0 0 0 0 0 0 0 0
0 0 0 0 0 0 0 0 0 0 0 0 0 0 0 0 0 0 0 0 0 0 0 0 0 0 0 0 0 0 0 0 0 0 0 0 0 0
0 0 0 0 0 0 0 0 0 0 0 0 0 0 0 0 0 0 0 0 0 0 0 0 0 0 0 0 0 0 0 0 0 0 0 0 0 0
0 0 0 0 0 0 0 0 0 0 0 0 0 0 0 0 0 0 0 0 0 0 0 0 0 0 0 0 0 0 0 0 0 0 0 0 0 0
0 0 0 0 0 0 0 0 0 0 0 0 0 0 0 0 0 0 0 0 0 0 0 0 0 0 0 0 0 0 0 0 0 0 0 0 0 0
0 0 0 0 0 0 0 0 0 0 0 0 0 0 0 0 0 0 0 0 0 0 0 0 0 0 0 0 0 0 0 0 0 0 0 0 0 0
0 0 0 0 0 0 0 0 0 0 0 0 0 0 0 0 0 0 0 0 0 0 0 0 0 0 0 0 0 0 0 0 0 0 0 0 0 0
0 0 0 0 0 0 0 0 0 0 0 0 0 0 0 0 0 0 0 0 0 0 0 0 0 0 0 0 0 0 0 0 0 0 0 0 0 0
0 0 0 0 0 0 0 0 0 0 0 0 0 0 0 0 0 0 0 0 0 0 0 0 0 0 0 0 0 0 0 0 0 0 0 0 -0 -0
Wind_Speed
1 1 1 1 2 2 2 3 3 2 2 2 1 1 0 0 1 0 0 0 1 3 3 4 3 3 2 2 3 4 4 4 4 4 5 5 6 6
1 0 1 1 1 1 1 2 2 3 2 1 1 1 1 1 0 0 1 2 3 1 1 3 3 3 3 2 2 2 2 2 2 2 3 3 3 4
1 1 1 1 0 0 0 1 1 2 2 1 0 1 1 1 2 1 1 2 2 3 3 3 4 3 3 2 2 1 1 1 1 0 1 2 2 2
1 1 2 1 1 1 1 1 1 1 2 0 1 1 1 1 1 2 2 2 1 3 3 4 4 4 4 4 3 3 2 2 2 1 1 1 1 1
1 1 1 2 1 1 1 1 1 1 1 2 0 1 1 1 1 2 3 2 2 3 4 4 4 4 4 4 3 3 3 3 3 2 2 2 3 2
2 2 2 2 2 1 2 2 2 2 2 2 1 1 1 1 1 1 2 2 2 3 4 4 4 5 4 3 3 3 3 3 4 4 4 3 3 3
3 4 4 6 6 4 3 3 3 3 2 2 2 1 1 1 1 0 2 1 2 2 2 2 2 2 3 3 4 4 4 4 4 4 4 4 3 3
4 4 5 6 8 9 10 9 7 4 3 2 1 1 1 1 1 1 1 2 1 2 2 2 2 2 2 2 4 5 5 5 5 5 4 4 4 3
4 4 4 5 6 5 8 10 9 9 6 3 3 2 1 1 1 2 2 2 1 1 2 2 2 2 2 3 4 4 4 4 4 4 4 4 4 4
5 5 5 5 5 5 6 6 6 6 6 4 3 2 2 1 2 2 2 2 2 2 2 2 2 1 2 2 4 4 4 4 4 4 4 4 4 4
6 6 5 5 6 7 6 6 6 5 7 9 8 8 9 8 5 3 3 3 2 2 2 2 1 1 2 2 3 4 4 4 4 4 3 3 4 3
5 6 8 7 7 7 5 5 5 3 4 6 7 8 7 8 8 4 2 3 2 1 2 1 1 1 2 2 2 2 2 3 3 3 2 2 2 2
4 3 4 8 8 8 6 4 4 3 3 4 4 5 5 5 5 4 3 2 2 0 1 1 1 1 1 1 2 2 1 1 1 2 2 2 1 1
3 2 3 8 9 9 7 7 8 6 4 4 4 4 3 3 3 3 3 2 1 1 1 1 1 1 1 0 2 2 2 1 1 1 1 2 2 1
3 5 6 8 7 6 8 9 6 4 4 4 3 2 2 2 2 3 4 3 4 3 3 1 1 1 1 1 1 1 2 2 1 0 1 1 1 1
4 5 7 8 7 6 5 5 4 3 2 2 1 2 2 2 2 2 2 2 3 4 4 4 2 1 1 0 1 1 1 2 2 1 0 1 1 1
3 3 4 4 4 4 3 3 3 3 3 2 2 2 2 2 2 2 1 2 2 2 3 4 3 2 1 1 0 1 1 2 2 1 0 1 2 2
5 4 3 3 2 2 2 2 3 3 2 2 2 2 2 2 2 2 2 1 1 2 2 2 2 3 4 3 1 1 1 2 2 1 0 0 2 3
5 3 2 2 1 1 1 1 1 2 2 2 2 2 2 2 1 2 2 2 2 2 2 2 1 1 1 3 5 1 2 2 1 1 1 1 2 3
3 2 1 1 1 1 1 1 2 2 2 2 2 2 2 1 1 2 1 1 1 2 2 2 1 1 2 3 3 4 2 2 2 1 2 1 2 3
1 2 1 1 1 1 1 1 2 2 2 2 2 2 2 1 1 2 2 2 1 1 2 3 4 3 1 0 2 3 4 3 3 2 2 1 2 2
2 2 1 2 2 2 2 2 2 2 2 2 2 2 2 1 1 2 1 1 1 2 2 3 3 2 1 1 2 3 4 4 4 3 4 5 3 3
1 1 1 2 2 2 2 2 2 2 2 2 2 2 3 2 2 2 2 2 2 2 2 3 3 2 2 1 1 2 3 3 2 3 3 5 5 7
Wind_Direction
241 240 230 242 225 221 202 185 187 227 275 263 255 291 317 17 322 83 213 339 216 225 216 206 199 209 221 226 223 222 222 228 233 240 245 249 250 248
233 231 272 277 258 238 204 187 176 184 223 248 236 281 322 353 40 109 118 99 83 103 153 164 167 174 176 178 193 196 195 208 227 246 255 263 269 267
360 29 314 300 311 1 80 139 144 152 184 289 338 360 35 22 17 47 81 80 71 89 110 120 128 132 131 128 126 125 146 147 152 200 259 257 257 259
9 23 340 356 45 43 77 89 110 124 141 170 346 7 15 16 45 53 58 77 79 78 94 103 109 109 103 97 93 88 86 88 81 68 55 44 52 25
53 47 358 26 39 45 75 84 85 78 95 118 36 6 5 24 46 46 53 37 52 64 75 77 90 97 94 94 89 82 75 71 64 59 54 47 40 40
50 54 40 41 46 56 71 75 89 81 81 93 74 32 10 345 56 67 53 31 36 43 51 61 66 71 69 81 91 90 83 73 65 57 51 45 43 46
46 47 57 60 57 61 73 75 85 86 83 83 72 49 26 26 19 24 89 58 36 34 41 39 44 39 33 38 58 71 67 65 62 54 46 44 48 54
63 53 59 54 55 62 67 71 78 91 96 84 64 60 5 0 24 69 101 77 31 352 44 22 37 36 19 35 52 60 58 59 56 50 44 44 47 53
66 61 61 55 56 61 64 64 60 61 75 101 87 59 40 348 80 75 81 89 102 312 68 33 19 20 4 33 57 60 55 50 49 47 46 46 46 44
61 66 73 60 61 71 72 65 57 50 52 65 76 52 52 51 105 124 122 90 50 21 60 64 3 358 8 14 30 49 43 38 39 42 52 53 45 47
53 56 66 66 62 75 75 70 56 38 49 58 55 50 51 52 60 73 66 77 50 355 14 72 8 360 359 353 3 23 20 21 28 35 54 60 52 45
50 48 56 67 67 74 79 81 73 47 45 42 39 36 38 41 46 61 85 92 85 7 341 44 19 35 1 331 343 349 353 352 357 12 25 32 33 46
65 48 45 63 67 66 71 74 83 81 60 55 45 34 31 31 29 34 51 90 95 37 295 70 66 49 94 306 321 319 325 325 341 348 345 334 338 91
76 52 52 63 62 61 61 63 71 71 61 54 47 32 23 14 9 21 33 42 63 169 267 105 127 154 125 10 305 313 318 307 305 333 342 351 359 349
75 73 67 66 61 56 55 60 60 59 60 56 44 13 346 349 9 15 14 20 19 11 13 24 112 136 131 172 251 277 303 308 292 256 303 317 316 340
66 63 62 59 54 47 43 42 43 52 68 62 29 356 2 16 17 16 14 11 20 349 346 4 29 100 108 196 188 260 267 273 292 281 268 307 309 288
84 60 50 45 42 33 28 26 29 35 41 32 35 24 15 16 2 0 25 32 33 340 334 343 2 29 121 170 220 270 280 281 268 255 74 317 299 285
89 74 62 58 59 49 38 23 24 26 24 30 33 24 14 7 357 355 14 33 5 324 315 317 354 10 4 342 235 227 287 276 280 279 192 248 293 290
80 76 69 61 51 42 34 34 16 1 16 31 27 10 358 356 3 358 359 3 344 319 306 309 3 64 14 319 308 264 216 261 280 299 278 233 255 273
71 79 68 49 44 44 34 24 16 12 13 7 3 356 358 358 357 347 341 335 321 319 324 321 308 234 211 232 263 294 277 222 227 257 283 296 288 299
60 56 53 50 36 44 51 52 43 23 5 0 356 351 349 359 346 327 324 331 338 324 317 300 285 290 250 54 328 308 301 284 233 214 217 249 297 311
85 74 55 56 53 51 53 54 47 25 8 5 348 340 337 343 332 324 328 328 312 299 295 297 313 344 8 328 284 286 300 314 317 292 246 207 193 212
116 107 85 69 66 62 59 48 41 5 349 344 341 340 344 341 330 328 326 326 325 323 320 319 331 344 328 296 284 286 295 306 317 330 317 302 253 246